Location: Wingville
(42.9917°N, 90.4915°W)
Time: 03:07:57
(UTC+00:00)

UWE-3 - Pass Details

Date: 06 July 2022
Orbit: 583 x 677 km, 97.7° (Epoch: 11 August)

Event Time Altitude Azimuth Distance (km) Brightness Sun altitude
Rises 08:48:27 0° 22° (NNE) 2,924 ? -14.5°
Reaches altitude 10° 08:50:49 10° 32° (NNE) 2,028 ? -14.3°
Maximum altitude 08:54:49 33° 97° (E) 1,090 ? -13.8°
Drops below altitude 10° 08:58:53 10° 161° (SSE) 2,064 ? -13.3°
Enters shadow 09:00:08 - 167° (SSE) 2,528 ? -13.2°
